DECAYED

STARLINK-30504, 57980 (Decayed)

Orbit data source: Space-Track

STARLINK-30504, 57980 was a payload satellite owned by SpaceX/Seattle (US) in LEO that was launched on Sat, 30 Sep 2023 UTC via an FALCON 9 launch vehicle from the Air Force Eastern Test Range (AFETR). Payload-class satellites include a variety of spacecraft equipped with specific instruments for various scientific and technological missions. These include communications satellites like Starlink; space stations such as the ISS; scientific satellites like the Hubble; Earth observation satellites from companies like Planet Labs, Umbra, and HawkEye 360; GPS; miniature CubeSats for education and research; and military/defense satellites.

Not visible in the next 10 days
Identifier
57980, 2023-151S
Orbit
Decayed
Country
Flag of USUS
Related business
Manufacturer
SpaceX/Seattle
Mission
Decayed Commercial Communications
Bus & Motor
STARLINK V2M, Unknown motor
Mass
730 kg wet, ~700 kg dry
Launch date (UTC)
2023-09-30 (3 years ago)
Launch vehicle
FALCON 9
Launch site
Air Force Eastern Test Range (AFETR)
Object type
Payload
Rocket body
Debris
Shape & HBR
Box + 2 Pan, 17.7 m
Radar Cross Section
33.884 m², Large (>1 m²)

Expand to show TLE details & history
Last TLE update: 4 months ago

TLE from 4 months ago
0 STARLINK-30504
1 57980U 23151S   26076.38474370  .09312982  92335-5  23561-2 0  9998
2 57980  42.9682 156.8852 0014939  26.3442 333.8203 16.27578042138527
Epoch: 2026-03-17T09:14Z
TLE epoch observation values (Epoch: 2026-03-17T09:14:01.855Z)
Latitude
-0.00001°
Longitude
-156.58617°
Altitude
190.005 km
Speed
7.8 km/s
True Right ascension
10h 27m 32s
True Declination
0° 00' 00"
Sunlit
Object was in full shadow at epoch
Visualization orbit readout
Latitude
Unknown
Longitude
Unknown
Altitude
Unknown
Speed
Unknown
Apparent Right ascension
Unknown
Apparent Declination
Unknown
Sunlit
N/A
Visualization observer readout
Local Sidereal Time
20:39:26
Azimuth
Unknown
Elevation
Unknown
Doppler factor
Unknown
Orbital elements
Apogee altitude
210.92 km
Perigee altitude
191.262 km
Semi-major axis
6,579.228 km
Eccentricity
0.00149
Inclination
42.9682°
RAAN
156.8852°
Arg. of periapsis
26.3442°
True anomaly
333.74465°
Mean anomaly
333.8203°
Eccentric anomaly
333.78249°
Mean motion
4.06706 °/min
Orbital period
88.52 mins
BSTAR
0.0023561
Loading maneuver chart data...
Computing Atmospheric mass density...
Loading historical data...
Loading historical data...
Loading historical data...
Loading historical data...
Loading historical data...
Loading historical data...
Loading historical data...

Documentation

Showing up to 5 results
|